McGuire AFB, NJ

5:47 PM EDT on October 17, 2017 (GMT -0400)
McGuire Air Force Base

Weather History for KWRI - March, 2014

Change the Weather History Date:

Monday, March 3, 2014

  Actual Average Record
Temperature  
Mean Temperature 20 °F -  
Max Temperature 32 °F 45 °F 63 °F (2008)
Min Temperature 9 °F 27 °F 9 °F (2014)
Degree Days  
Heating Degree Days 44    
Moisture  
Dew Point 14 °F    
Average Humidity 79    
Maximum Humidity 93    
Minimum Humidity 46    
Precipitation  
Precipitation 0.05 in - - ()
Snow  
Snow 0.00 in - - ()
Snow Depth 4.00 in    
Sea Level Pressure  
Sea Level Pressure 30.12 in    
Wind  
Wind Speed 10 mph (North)    
Max Wind Speed 15 mph    
Max Gust Speed 22 mph    
Visibility 5 miles    
Events Snow    
Averages and records for this station are not official NWS values.
T = Trace of Precipitation, MM = Missing Value Source: NWS Daily Summary

Daily Weather History Graph

Daily Weather History Graph

Search for Another Location

Airport or City:

Trip Planner

Search our weather history database for the weather conditions in past years. The results will help you decide how hot, cold, wet, or windy it might be!

Date:

Astronomy

Mar. 03, 2014 Rise Set
Actual Time 6:28 AM EST 5:52 PM EST
Civil Twilight 6:01 AM EST 6:19 PM EST
Nautical Twilight 5:30 AM EST 6:50 PM EST
Astronomical Twilight 4:58 AM EST 7:22 PM EST
Moon 7:35 AM EST (3/3) 8:52 PM EST (3/3)
Length of Visible Light 12h 17m
Length of Day
11h 23m
Waxing Crescent, 8% of the Moon is Illuminated
Mar 3
Waxing Crescent
Mar 8
First Quarter
Mar 16
Full
Mar 23
Last Quarter
Mar 30
New

Hourly Weather History & Observations

Time (EST) Temp. Windchill Dew Point Humidity Pressure Visibility Wind Dir Wind Speed Gust Speed Precip Events Conditions
12:03 AM 32.0 °F 25.6 °F 28.4 °F 87% 29.98 in 10.0 mi North 6.9 mph - N/A   Overcast
12:39 AM 32.0 °F 24.8 °F 26.6 °F 80% 29.98 in 10.0 mi North 8.1 mph - N/A Snow Light Snow
12:58 AM 31.6 °F 21.2 °F 23.5 °F 72% 30.01 in 10.0 mi North 15.0 mph - 0.00 in Snow Light Snow
1:10 AM 32.0 °F 23.6 °F 24.8 °F 75% 29.99 in 9.0 mi North 10.4 mph - N/A Snow Light Snow
1:28 AM 28.4 °F 19.1 °F 23.0 °F 80% 30.00 in 7.0 mi North 10.4 mph 18.4 mph N/A Snow Light Snow
1:31 AM 28.4 °F 19.1 °F 23.0 °F 80% 30.00 in 6.0 mi North 10.4 mph - N/A Snow Light Snow
1:46 AM 28.4 °F 19.1 °F 23.0 °F 80% 30.00 in 5.0 mi North 10.4 mph - N/A Snow Light Snow
1:58 AM 27.7 °F 18.8 °F 24.1 °F 86% 30.02 in 4.0 mi North 9.2 mph - 0.02 in Snow Light Snow
2:04 AM 26.6 °F 17.5 °F 24.8 °F 93% 30.00 in 5.0 mi North 9.2 mph - N/A Snow Light Snow
2:10 AM 26.6 °F 17.5 °F 24.8 °F 93% 30.00 in 5.0 mi North 9.2 mph - N/A Snow Light Snow
2:25 AM 26.6 °F 17.5 °F 24.8 °F 93% 30.00 in 2.5 mi North 9.2 mph - N/A Snow Light Snow
2:34 AM 26.6 °F 15.7 °F 23.0 °F 86% 30.01 in 2.0 mi North 12.7 mph - N/A Snow Light Snow
2:35 AM 26.6 °F 15.2 °F 23.0 °F 86% 30.00 in 2.0 mi North 13.8 mph - N/A Snow Light Snow
2:44 AM 24.8 °F 13.4 °F 23.0 °F 93% 30.01 in 3.0 mi North 12.7 mph - N/A Snow Light Snow
2:47 AM 24.8 °F 13.4 °F 23.0 °F 93% 30.01 in 3.0 mi North 12.7 mph - N/A Snow Light Snow
2:56 AM 24.8 °F 14.6 °F 21.2 °F 86% 30.02 in 3.0 mi North 10.4 mph - N/A Snow Light Snow
2:58 AM 25.0 °F 15.5 °F 21.4 °F 86% 30.04 in 3.0 mi North 9.2 mph - 0.00 in Snow Light Snow
3:07 AM 24.8 °F 14.0 °F 21.2 °F 86% 30.02 in 4.0 mi NNE 11.5 mph - N/A Snow Light Snow
3:16 AM 24.8 °F 16.1 °F 21.2 °F 86% 30.02 in 4.0 mi North 8.1 mph - N/A Snow Light Snow
3:34 AM 24.8 °F 15.3 °F 21.2 °F 86% 30.02 in 3.0 mi North 9.2 mph - N/A Snow Light Snow
3:49 AM 24.8 °F 16.9 °F 21.2 °F 86% 30.02 in 4.0 mi North 6.9 mph - N/A Snow Light Snow
3:58 AM 23.9 °F 14.2 °F 20.7 °F 87% 30.04 in 5.0 mi North 9.2 mph - 0.01 in Snow Light Snow
4:07 AM 23.0 °F 12.4 °F 21.2 °F 93% 30.02 in 4.0 mi North 10.4 mph - N/A Snow Light Snow
4:25 AM 23.0 °F 11.1 °F 21.2 °F 93% 30.03 in 5.0 mi North 12.7 mph - N/A Snow Light Snow
4:43 AM 23.0 °F 11.1 °F 19.4 °F 86% 30.03 in 5.0 mi North 12.7 mph - N/A Snow Light Snow
4:58 AM 22.8 °F 10.9 °F 18.7 °F 84% 30.06 in 4.0 mi North 12.7 mph - 0.00 in Snow Light Snow
5:22 AM 23.0 °F 13.1 °F 17.6 °F 80% 30.06 in 4.0 mi NNE 9.2 mph - N/A Snow Light Snow
5:25 AM 23.0 °F 13.1 °F 17.6 °F 80% 30.06 in 3.0 mi North 9.2 mph - N/A Snow Light Snow
5:31 AM 21.2 °F 11.7 °F 19.4 °F 93% 30.07 in 3.0 mi North 8.1 mph - N/A Snow Light Snow
5:34 AM 21.2 °F 10.1 °F 19.4 °F 93% 30.07 in 2.5 mi North 10.4 mph - N/A Snow Light Snow
5:37 AM 21.2 °F 9.5 °F 19.4 °F 93% 30.07 in 3.0 mi North 11.5 mph 17.3 mph N/A Snow Light Snow
5:40 AM 21.2 °F 8.9 °F 17.6 °F 86% 30.07 in 2.5 mi North 12.7 mph - N/A Snow Light Snow
5:49 AM 21.2 °F 8.9 °F 17.6 °F 86% 30.07 in 3.0 mi North 12.7 mph - N/A Snow Light Snow
5:52 AM 21.2 °F 8.9 °F 17.6 °F 86% 30.07 in 3.0 mi North 12.7 mph - N/A Snow Light Snow
5:58 AM 21.4 °F 9.7 °F 17.6 °F 85% 30.10 in 3.0 mi North 11.5 mph - 0.01 in Snow Light Snow
6:04 AM 21.2 °F 8.9 °F 17.6 °F 86% 30.08 in 4.0 mi North 12.7 mph 17.3 mph N/A Snow Light Snow
6:10 AM 21.2 °F 8.9 °F 15.8 °F 80% 30.08 in 5.0 mi North 12.7 mph - N/A Snow Light Snow
6:16 AM 19.4 °F 6.0 °F 15.8 °F 86% 30.09 in 5.0 mi North 13.8 mph - N/A Snow Light Snow
6:25 AM 19.4 °F 6.0 °F 14.0 °F 80% 30.09 in 5.0 mi North 13.8 mph - N/A Snow Light Snow
6:58 AM 18.9 °F 4.8 °F 13.5 °F 79% 30.13 in 4.0 mi North 15.0 mph 19.6 mph 0.00 in Snow Light Snow
7:04 AM 17.6 °F 3.7 °F 12.2 °F 79% 30.11 in 2.5 mi North 13.8 mph 19.6 mph N/A Snow Light Snow
7:19 AM 17.6 °F 3.2 °F 14.0 °F 86% 30.14 in 2.0 mi North 15.0 mph 21.9 mph N/A Snow Light Snow
7:22 AM 17.6 °F 3.7 °F 14.0 °F 86% 30.14 in 1.8 mi North 13.8 mph 21.9 mph N/A Snow Light Snow
7:31 AM 17.6 °F 4.3 °F 14.0 °F 86% 30.14 in 1.5 mi NNE 12.7 mph - N/A Snow Light Snow
7:40 AM 17.6 °F 5.7 °F 14.0 °F 86% 30.15 in 1.5 mi North 10.4 mph - N/A Snow Light Snow
7:43 AM 17.6 °F 6.4 °F 14.0 °F 86% 30.15 in 1.2 mi North 9.2 mph - N/A Snow Light Snow
7:46 AM 17.6 °F 3.2 °F 12.2 °F 79% 30.15 in 1.0 mi North 15.0 mph 19.6 mph N/A Snow Light Snow
7:49 AM 17.6 °F 6.4 °F 12.2 °F 79% 30.15 in 1.0 mi North 9.2 mph 19.6 mph N/A Snow Light Snow
7:52 AM 17.6 °F 6.4 °F 12.2 °F 79% 30.15 in 1.2 mi North 9.2 mph 19.6 mph N/A Snow Light Snow
7:55 AM 17.6 °F 7.3 °F 12.2 °F 79% 30.15 in 1.8 mi North 8.1 mph 19.6 mph N/A Snow Light Snow
7:58 AM 16.9 °F 5.5 °F 12.4 °F 82% 30.17 in 1.8 mi North 9.2 mph - 0.00 in Snow Light Snow
8:04 AM 15.8 °F 3.4 °F 12.2 °F 86% 30.15 in 2.0 mi North 10.4 mph - N/A Snow Light Snow
8:10 AM 15.8 °F 2.1 °F 12.2 °F 86% 30.15 in 3.0 mi North 12.7 mph 18.4 mph N/A Snow Light Snow
8:13 AM 15.8 °F 2.1 °F 12.2 °F 86% 30.16 in 2.5 mi North 12.7 mph 19.6 mph N/A Snow Light Snow
8:25 AM 15.8 °F 2.7 °F 12.2 °F 86% 30.16 in 1.8 mi North 11.5 mph - N/A Snow Light Snow
8:28 AM 15.8 °F 2.7 °F 12.2 °F 86% 30.16 in 2.0 mi North 11.5 mph - N/A Snow Light Snow
8:49 AM 15.8 °F 5.1 °F 12.2 °F 86% 30.17 in 3.0 mi North 8.1 mph - N/A Snow Light Snow
8:52 AM 15.8 °F 5.1 °F 12.2 °F 86% 30.18 in 2.5 mi North 8.1 mph - N/A Snow Light Snow
8:58 AM 16.2 °F 5.5 °F 12.0 °F 84% 30.20 in 1.8 mi North 8.1 mph - 0.00 in Snow Light Snow
9:01 AM 15.8 °F 6.1 °F 12.2 °F 86% 30.18 in 2.0 mi North 6.9 mph - N/A Snow Light Snow
9:10 AM 15.8 °F 7.2 °F 12.2 °F 86% 30.18 in 3.0 mi North 5.8 mph - N/A Snow Light Snow
9:11 AM 15.8 °F 8.6 °F 12.2 °F 86% 30.18 in 2.5 mi North 4.6 mph - N/A Snow Light Snow
9:20 AM 15.8 °F 10.2 °F 12.2 °F 86% 30.18 in 2.0 mi North 3.5 mph - N/A Snow Light Snow
9:23 AM 15.8 °F - 12.2 °F 86% 30.18 in 2.0 mi Variable 2.3 mph - N/A Snow Light Snow
9:26 AM 15.8 °F - 10.4 °F 79% 30.17 in 2.0 mi Variable 1.2 mph - N/A Snow Light Snow
9:32 AM 15.8 °F - 10.4 °F 79% 30.17 in 4.0 mi Variable 1.2 mph - N/A Snow Light Snow
9:33 AM 15.8 °F - 10.4 °F 79% 30.17 in 6.0 mi Calm Calm - N/A Snow Light Snow
9:39 AM 15.8 °F - 8.6 °F 73% 30.16 in 10.0 mi Calm Calm - N/A Snow Light Snow
9:40 AM 15.8 °F - 10.4 °F 79% 30.16 in 10.0 mi Calm Calm - N/A   Overcast
9:58 AM 17.8 °F 7.5 °F 4.1 °F 55% 30.18 in 10.0 mi North 8.1 mph - 0.01 in   Overcast
10:58 AM 19.0 °F 8.2 °F 2.7 °F 49% 30.18 in 10.0 mi NNE 9.2 mph - N/A   Overcast
11:58 AM 18.9 °F 7.2 °F 2.3 °F 49% 30.20 in 10.0 mi NNW 10.4 mph - N/A   Scattered Clouds
12:58 PM 19.4 °F 7.2 °F 2.7 °F 48% 30.18 in 10.0 mi NNW 11.5 mph - N/A   Overcast
1:58 PM 20.3 °F 7.7 °F 2.7 °F 47% 30.19 in 10.0 mi NW 12.7 mph - N/A   Overcast
2:58 PM 20.3 °F 6.6 °F 3.7 °F 49% 30.20 in 10.0 mi NW 15.0 mph 19.6 mph N/A   Mostly Cloudy
3:58 PM 20.1 °F 7.5 °F 2.5 °F 46% 30.21 in 10.0 mi North 12.7 mph - N/A   Mostly Cloudy
4:58 PM 19.9 °F 7.9 °F 2.8 °F 48% 30.23 in 10.0 mi NW 11.5 mph - N/A   Mostly Cloudy
5:58 PM 18.9 °F 7.2 °F 3.6 °F 51% 30.24 in 10.0 mi NNW 10.4 mph - N/A   Partly Cloudy
6:58 PM 14.4 °F 4.3 °F 2.5 °F 59% 30.27 in 10.0 mi NNW 6.9 mph - N/A   Clear
7:58 PM 14.0 °F 3.9 °F 1.2 °F 57% 30.29 in 10.0 mi NW 6.9 mph - N/A   Clear
8:58 PM 14.2 °F 5.3 °F 1.6 °F 57% 30.30 in 10.0 mi NW 5.8 mph - N/A   Clear
9:58 PM 14.0 °F 5.1 °F 2.1 °F 59% 30.32 in 10.0 mi NW 5.8 mph - N/A   Clear
10:58 PM 9.3 °F -3.8 °F -2.0 °F 60% 30.33 in 10.0 mi NNW 9.2 mph - N/A   Clear
11:58 PM 9.9 °F -4.0 °F -2.2 °F 58% 30.32 in 10.0 mi NNW 10.4 mph - N/A   Clear